Regional Weather Roundup
Issued by NWS

Home | Current Version | Previous Version | Graphics & Text | Print | Product List | Glossary Off
Versions: 1 2 3 4 5 6 7 8 9 10 11 12 13 14 15 16 17 18 19 20 21 22 23 24 25 26 27 28 29 30 31 32 33 34 35 36 37 38 39 40 41 42 43 44 45 46 47 48 49 50

000
ASUS43 KMKX 302300
RWRWI

WISCONSIN REGIONAL WEATHER ROUNDUP
NATIONAL WEATHER SERVICE MILWAUKEE/SULLIVAN WI
600 PM CDT THU OCT 30 2014

NOTE: "FAIR" INDICATES FEW OR NO CLOUDS BELOW 12,000 FEET WITH NO
SIGNIFICANT WEATHER AND/OR OBSTRUCTIONS TO VISIBILITY.

WIZ001-002-006>008-014>016-023>028-310000-
NORTHWEST WISCONSIN

CITY           SKY/WX    TMP DP  RH WIND       PRES   REMARKS
SUPERIOR ARPT  CLOUDY    40  31  69 NW12      30.14R WCI  33
ASHLAND        CLOUDY    39  34  82 NW10      30.10R WCI  32
HAYWARD        CLOUDY    41  31  67 VRB7      30.11R
SIREN          CLOUDY    42  31  66 NW15      30.14R
CUMBERLAND     CLOUDY    39  32  75 NW9       30.11S WCI  33
RICE LAKE      CLOUDY    41  32  70 W9        30.13R
CHETEK         CLOUDY    41  33  73 W7        30.11R
LADYSMITH      CLOUDY    42  33  70 NW9       30.10R
EAU CLAIRE     NOT AVBL
MENOMONIE      CLOUDY    46  34  65 NW14      30.11R
NEW RICHMOND   CLOUDY    42  33  70 NW12      30.15R
OSCEOLA        CLOUDY    43  34  70 NW9       30.18R
$$

WIZ003>005-009-010-017-018-310000-
NORTH CENTRAL WISCONSIN

CITY           SKY/WX    TMP DP  RH WIND       PRES   REMARKS
MANITOWISH WTR CLOUDY    38  32  80 NW9       30.03S WCI  31
ARBOR VITAE    CLOUDY    39  33  77 NW9       30.03R WCI  33
WOODRUFF       CLOUDY    39  33  77 NW9       30.03R WCI  33
RHINELANDER    CLOUDY    39  30  70 NW10      30.03R WCI  32
EAGLE RIVER    CLOUDY    38  30  72 NW10      30.01S WCI  31
LAND O LAKES   DRIZZLE   37  34  89 W7        30.02R WCI  32
PHILLIPS       CLOUDY    39  31  72 NW8       30.05R WCI  34
TOMAHAWK       CLOUDY    40  32  71 CALM      30.04R
MEDFORD        CLOUDY    39  33  78 NW9       30.05R WCI  33
MERRILL        CLOUDY    42  32  69 NW8       30.03S
$$

WIZ029-030-035-036-043>047-310000-
CENTRAL WISCONSIN

CITY           SKY/WX    TMP DP  RH WIND       PRES   REMARKS
WAUSAU         CLOUDY    43  34  70 NW9       30.02S
MOSINEE        CLOUDY    43  34  70 W9        30.04S
MARSHFIELD     CLOUDY    44  34  67 NW7       30.04S
STEVENS POINT  CLOUDY    43  33  66 W5        30.04S
WAUPACA        CLOUDY    50  35  56 W10       30.03S
WAUTOMA        NOT AVBL
WISC RAPIDS    CLOUDY    46  34  62 NW6       30.06R
CAMP DOUGLAS   NOT AVBL
$$

WIZ011>013-019>022-031-037>040-048>050-310000-
NORTHEAST WISCONSIN

CITY           SKY/WX    TMP DP  RH WIND       PRES   REMARKS
ANTIGO         CLOUDY    40  33  75 NW8       30.01S WCI  35
SHAWANO        CLOUDY    48  34  60 W7        30.02R
OCONTO         CLOUDY    46  35  67 W5        30.01S
STURGEON BAY   CLOUDY    45  34  65 W5        30.01S
GREEN BAY      CLOUDY    47  37  68 SW5       30.01F
MANITOWOC      NOT AVBL
APPLETON       MOCLDY    46  36  66 W6        30.02S
CLINTONVILLE   CLOUDY    46  34  61 W7        30.01F
OSHKOSH        CLOUDY    48  37  65 W3        30.02S
$$

WIZ032>034-041-042-053>061-310000-
SOUTHWEST WISCONSIN

CITY           SKY/WX    TMP DP  RH WIND       PRES   REMARKS
LA CROSSE      CLOUDY    46  38  73 CALM      30.09R
SPARTA         CLOUDY    46  36  68 W6        30.08R
VIROQUA        CLOUDY    44  37  76 W3        30.07S
BOSCOBEL       CLOUDY    50  37  61 NW3       30.09R
PRAIRIE DU CHI CLOUDY    48  37  63 NW3       30.08R
PLATTEVILLE    CLOUDY    48  38  67 CALM      30.08R
$$

WIZ056-057-062-063-064-067-068-310000-
SOUTH CENTRAL WISCONSIN

CITY           SKY/WX    TMP DP  RH WIND       PRES   REMARKS
REEDSBURG      CLOUDY    46  36  69 W6        30.06S
BARABOO/DELLS  CLOUDY    46  35  67 W5        30.05S
LONE ROCK      NOT AVBL
MINERAL POINT  CLOUDY    48  37  66 CALM      30.07S
MADISON        MOCLDY    48  35  60 CALM      30.05F
MIDDLETON      CLOUDY    48  36  63 W5        30.06S
WATERTOWN      CLOUDY    47  35  61 W5        30.04F
MONROE         CLOUDY    46  37  71 CALM      30.06S
JANESVILLE     CLOUDY    48  36  61 NW6       30.05
$$

WIZ051-052-058>065-066-070>072-310000-
SOUTHEAST WISCONSIN

CITY           SKY/WX    TMP DP  RH WIND       PRES   REMARKS
MILWAUKEE      MOCLDY    50  33  52 W7        30.05S
WAUKESHA       CLOUDY    46  34  61 W8        30.05F
MILWAUKEE/TIMM NOT AVBL
RACINE         CLOUDY    50  33  52 W5        30.06S
BURLINGTON     CLOUDY    46  34  61 NW3       30.05S
KENOSHA        CLOUDY    49  35  58 NW6       30.05S
FOND DU LAC    CLOUDY    47  35  63 SW5       30.03F
SHEBOYGAN      CLOUDY    46  36  68 W5        30.02F
WEST BEND      CLOUDY    46  32  57 W6        30.04S
JUNEAU         CLOUDY    46  36  68 SW5       30.05F
$$

LSZ147-162-310000-
LAKE SUPERIOR

STATION/POSITION TIME  TEMP    WIND        PRES    WAVE
                       AIR SEA DIR/SP/G            HT/PER
                 (UTC) (F)     (DEG/KT/KT) (MB)    (FT/S)
W MID LAKE BUOY  2150   42 45  320/ 21/ 27 1016.8R   2/ 4
DEVILS ISLAND    2200   41     350/ 19/ 22 1019.0R
PORT WING        2200   44     330/ 21/ 24 1019.6R
SAXON HARBOR     2240   44     290/  6/ 10 1018.3R
$$

LMZ867-665-643>646-310000-
LAKE MICHIGAN

STATION/POSITION TIME  TEMP    WIND        PRES    WAVE
                       AIR SEA DIR/SP/G            HT/PER
                 (UTC) (F)     (DEG/KT/KT) (MB)    (FT/S)
CHAMBERS ISLAND  2200   46     230/  6/  8 1015.9S
N MID LAKE BUOY  2150   46 51  260/ 14/ 16 1015.8F   2/ 4
NORTHPORT PIER   2200   46     270/  2/  7 1015.6S
KEWAUNEE LAKESHO 2200   46     270/  5/  8 1015.5F
SHEBOYGAN LAKESH 2200   49 50  290/  7/  9 1017.6S
PORT WASHINGTON  2200   51     260/  7/  9 1017.9R
ATWATER BUOY     2200   51     270/ 10/ 12 1018.4S
MILWAUKEE LAKESH 2200   50     300/  8/ 10   N/A
S MID LAKE BUOY  2150   49 53  220/  8/ 10 1018.1R   2/ 4
KENOSHA   LAKESH 2200   51     260/  8/ 10 1017.6R
$$

TC  - TEMPERATURE IN CELSIUS
VSB - VISIBILITY IN STATUTE MILES
WCI - WIND CHILL INDEX
HX  - HEAT INDEX




USA.gov is the U.S. government's official web portal to all federal, state and local government web resources and services.